EW6534 Weather Reports


time (UTC)temp
C
wind
direction
speed
KPH
gust
KPH
rain 1hr
cm
rain 24hr
cm
rain mn
cm
humidity
%
barometer
mb
20260504214542 22 178 24.1 35.4 0.00 0.00 0.00 53 1005.9
20260504213044 22 182 25.7 37.0 0.00 0.00 0.00 51 1006.1
20260504211544 22 169 30.6 43.5 0.00 0.00 0.00 50 1006.2
20260504210035 22 196 25.7 38.6 0.00 0.00 0.00 53 1006.3
20260504204537 22 196 30.6 40.2 0.00 0.00 0.00 52 1006.3
20260504203030 22 172 27.4 38.6 0.00 0.00 0.00 54 1006.5
20260504201525 21 161 22.5 32.2 0.00 0.00 0.00 56 1006.8
20260504200023 20 193 24.1 32.2 0.00 0.00 0.00 60 1007.5
20260504194522 19 199 20.9 33.8 0.00 0.00 0.00 62 1008.0
20260504193021 19 190 24.1 40.2 0.00 0.00 0.00 61 1008.5
20260504191523 19 198 20.9 35.4 0.00 0.00 0.00 63 1008.3
20260504190020 20 190 30.6 40.2 0.00 0.00 0.00 56 1008.0
20260504184519 20 146 22.5 38.6 0.00 0.00 0.00 58 1007.3
20260504183015 20 138 22.5 30.6 0.00 0.00 0.00 58 1007.5
20260504181513 20 175 19.3 27.4 0.00 0.00 0.00 59 1007.6
20260504180011 20 144 19.3 33.8 0.00 0.00 0.00 58 1007.1
20260504174507 19 144 22.5 32.2 0.00 0.00 0.00 59 1007.5
20260504173005 19 149 17.7 29.0 0.00 0.00 0.00 60 1007.5
20260504171501 18 178 25.7 35.4 0.00 0.00 0.00 58 1007.8
20260504081526 10 159 19.3 29.0 0.00 0.00 0.00 67 1010.1
20260504050106 11 144 14.5 25.7 0.00 0.00 0.00 63 1012.1
20260504044600 11 138 16.1 24.1 0.00 0.00 0.00 63 1012.3
20260504043054 11 147 14.5 22.5 0.00 0.00 0.00 63 1012.3
20260504041549 11 144 14.5 22.5 0.00 0.00 0.00 63 1012.5
20260504040050 11 146 11.3 19.3 0.00 0.00 0.00 64 1012.7
20260504034544 11 136 11.3 16.1 0.00 0.00 0.00 63 1012.8
20260504033044 10 136 9.7 14.5 0.00 0.00 0.00 62 1012.9
20260504031547 11 134 11.3 17.7 0.00 0.00 0.00 61 1013.0
20260504030042 11 136 12.9 20.9 0.00 0.00 0.00 58 1013.2
20260504024600 11 137 11.3 17.7 0.00 0.00 0.00 60 1013.3
20260504023041 11 122 9.7 14.5 0.00 0.00 0.00 61 1013.3
20260504021542 11 113 6.4 11.3 0.00 0.00 0.00 65 1013.3
20260504020043 10 122 3.2 6.4 0.00 0.00 0.00 69 1013.3
20260504014539 10 119 3.2 11.3 0.00 0.00 0.00 68 1013.4
20260504013039 10 92 3.2 6.4 0.00 0.00 0.00 70 1013.4
20260504011538 10 71 1.6 6.4 0.00 0.00 0.00 71 1013.4
20260504010038 10 70 6.4 9.7 0.00 0.00 0.00 70 1013.2
20260504004544 10 76 4.8 6.4 0.00 0.00 0.00 71 1013.2
20260504003043 10 86 4.8 9.7 0.00 0.00 0.00 70 1013.0
20260504001541 10 86 6.4 14.5 0.00 0.00 0.00 70 1012.8
20260504000053 10 73 8.0 9.7 0.00 0.00 0.00 70 1012.9
20260503234532 11 67 3.2 6.4 0.00 0.00 0.00 69 1013.3
20260503233028 11 61 4.8 8.0 0.00 0.00 0.00 66 1013.5
20260503231529 11 349 3.2 6.4 0.00 0.00 0.00 63 1013.9
20260503230024 11 345 4.8 9.7 0.00 0.00 0.00 61 1014.0
20260503224524 11 319 4.8 12.9 0.00 0.00 0.00 62 1014.2
20260503223023 11 339 3.2 8.0 0.00 0.00 0.00 60 1014.4
20260503221520 11 75 1.6 9.7 0.00 0.00 0.00 65 1014.6
20260503220019 11 270 3.2 11.3 0.00 0.00 0.00 61 1014.5